Regional Weather Roundup
Issued by NWS

Home | Current Version | Previous Version | Graphics & Text | Print | Product List | Glossary On
Versions: 1 2 3 4 5 6 7 8 9 10 11 12 13 14 15 16 17 18 19 20 21 22 23 24 25 26 27 28 29 30 31 32 33 34 35 36 37 38 39 40 41 42 43 44 45 46 47 48 49 50
000
ASUS43 KDMX 231007
RWRIA

WEATHER ROUNDUP FOR IOWA
NATIONAL WEATHER SERVICE DES MOINES IA
400 AM CST SUN NOV 23 2014

NOTE: "FAIR" INDICATES FEW OR NO CLOUDS BELOW 12,000 FEET WITH NO
SIGNIFICANT WEATHER AND/OR OBSTRUCTIONS TO VISIBILITY.

* - THESE STATIONS ARE NOT NWS STATIONS...THUS NOT UNDER NWS
QUALITY CONTROL.  THEY ALSO DO NOT REPORT WEATHER SUCH
AS PRECIPITATION OR FOG.

IAZ001>003-012>014-020>022-031>034-043>046-231100-
   NORTHWEST IOWA

CITY           SKY/WX    TMP DP  RH WIND       PRES   REMARKS
CARROLL *      PTCLDY    52  50  93 SW18      29.49F
CHEROKEE *     CLOUDY    50  50 100 S10       29.45S
DENISON *      CLOUDY    52  52 100 S12G20    29.46F
LE MARS *      CLEAR     52  50  93 S14G22    29.41F
ORANGE CITY *  CLOUDY    50  48  93 S9        29.42F FOG
SHELDON *      CLOUDY    50  50 100 S14       29.39F FOG
SIOUX CITY     CLOUDY    50  48  93 SE12      29.43F
SPENCER        CLOUDY    48  46  93 S7        29.44F
STORM LAKE *   CLOUDY    50  50 100 S13       29.47F FOG
$$

IAZ055>058-069>071-079>083-090>094-231100-
   SOUTHWEST IOWA

CITY           SKY/WX    TMP DP  RH WIND       PRES   REMARKS
ATLANTIC *     CLOUDY    52  52 100 S13       29.52F FOG
AUDUBON *      DRIZZLE   52  46  82 S12       29.53F
CLARINDA *     CLOUDY    54  54 100 S8        29.56F FOG
COUNCIL BLFS * CLOUDY    54  54 100 S10G18    29.49F FOG
CRESTON *      CLOUDY    52  52 100 S13       29.56F FOG
HARLAN  *      CLOUDY    52  52 100 S9        29.54F FOG
LAMONI         CLOUDY    51  50  96 S8G17     29.58F FOG
RED OAK *      CLOUDY    54  52  94 S12       29.53F
SHENANDOAH *   CLOUDY    54  52  94 S14       29.53F
$$

IAZ047>049-059>061-072>074-084-231100-
   CENTRAL IOWA

CITY           SKY/WX    TMP DP  RH WIND       PRES   REMARKS
AMES           CLOUDY    53  49  86 S13       29.55F
ANKENY *       CLOUDY    54  52  94 S9        29.56F
CHARITON *     CLOUDY    52  52 100 S14       29.59F
DES MOINES     CLOUDY    55  50  83 S12       29.57F
GRINNELL*      CLOUDY    52  50  93 S14       29.60F
KNOXVILLE *    CLOUDY    54  50  87 S15       29.58F
MARSHALLTOWN   CLOUDY    51  50  96 S12       29.57S FOG
PELLA *        CLOUDY    54  50  87 S12G17    29.61F
PERRY *        CLOUDY    52  50  93 S15       29.53F
$$

IAZ004>006-015-016-023>025-035-036-231100-
   NORTH CENTRAL IOWA

CITY           SKY/WX    TMP DP  RH WIND       PRES   REMARKS
ALGONA *       CLOUDY    50  50 100 S16       29.48F
CLARION *      CLOUDY    50  50 100 S10       29.52S FOG
ESTHERVILLE    CLOUDY    48  47  96 S10       29.45S FOG
FORT DODGE *   CLOUDY    52  48  87 S10       29.51F
MASON CITY     CLOUDY    50  49  96 S12       29.53F FOG
FOREST CITY *  CLOUDY    50  50 100 S13G18    29.49F FOG
IOWA FALLS *   CLOUDY    50  48  93 S13       29.55F FOG
$$

IAZ007>011-017>019-026>030-037>042-050>054-066-231100-
   NORTHEAST IOWA

CITY           SKY/WX    TMP DP  RH WIND       PRES   REMARKS
CEDAR RAPIDS   CLOUDY    50  50 100 S14       29.63S FOG
CHARLES CITY * CLOUDY    48  48 100 S13       29.55F FOG
CLINTON *      CLOUDY    48  46  93 S12       29.71S
DECORAH *      CLOUDY    50  50 100 S13       29.57S FOG
DUBUQUE        CLOUDY    48  48 100 S15       29.64F FOG
MONTICELLO *   CLOUDY    50  50 100 S12       29.64F FOG
OELWEIN *      CLOUDY    50  50 100 S15       29.59F FOG
WATERLOO       CLOUDY    50  50 100 S16       29.57F FOG
$$

IAZ064-065-067-068-078-231100-
   EAST CENTRAL IOWA

CITY           SKY/WX    TMP DP  RH WIND       PRES   REMARKS
DAVENPORT      CLOUDY    51  48  89 S14       29.68F
IOWA CITY      CLOUDY    51  50  96 S12       29.67F
MT. PLEASANT * CLOUDY    52  48  87 S12       29.67F
MUSCATINE *    CLOUDY    52  50  93 S9        29.68S
QUAD CITIES    CLOUDY    53  48  83 S16G23    29.68F
$$

IAZ062-063-075>077-085>089-095>099-231100-
   SOUTHEAST IOWA

CITY           SKY/WX    TMP DP  RH WIND       PRES   REMARKS
BURLINGTON     CLOUDY    51  48  89 S13       29.69F
FAIRFIELD *    CLOUDY    52  50  93 S9        29.65F
FORT MADISON * CLOUDY    54  50  87 S12       29.69F
KEOKUK *       CLOUDY    54  50  87 VRB6G13   29.67F
OSKALOOSA *    CLOUDY    52  50  93 S9        29.63F FOG
CENTERVILLE *  CLOUDY    52  52 100 S8G16     29.63F
OTTUMWA        CLOUDY    51  50  96 S8        29.63F FOG
WASHINGTON *   CLOUDY    52  52 100 S8G14     29.65F FOG
$$

ABBREVIATIONS USED IN REMARKS
   TC - TEMPERATURES IN CELSIUS
  WCI - WIND CHILL INDEX
   HX - HEAT INDEX
  VSB - VISIBILITY
$$




USA.gov is the U.S. government's official web portal to all federal, state and local government web resources and services.